Location: Seattle
(47.6064°N, 122.3308°W)
Time: 21:58:07
(UTC-08:00)

Explorer 11/Cluster Stage 4 - All Passes

Search period start: 26 November 2020 00:00
Search period end: 06 December 2020 00:00
Orbit: 467 x 1258 km, 28.8° (Epoch: 26 November)

Date Brightness Start Highest point End Pass type
(mag) Time Alt. Az. Time Alt. Az. Time Alt. Az.
29 Nov - 21:47:53 10° S 21:49:31 11° S 21:51:05 10° SSE night (unlit)
30 Nov - 21:35:48 10° SSW 21:38:26 12° S 21:40:55 10° SSE night (unlit)
30 Nov - 23:24:43 10° SSW 23:25:55 11° SSW 23:27:04 10° S night (unlit)
01 Dec - 21:24:01 10° SSW 21:27:21 14° S 21:30:26 10° SSE visible
01 Dec - 23:13:12 10° SSW 23:14:51 11° SSW 23:16:26 10° S night (unlit)
02 Dec - 19:26:25 10° S 19:28:31 11° SSE 19:30:33 10° SSE visible
02 Dec - 21:12:23 10° SSW 21:16:14 15° S 21:19:47 10° SSE visible
02 Dec - 23:01:49 10° SSW 23:03:45 11° SSW 23:05:36 10° S night (unlit)
03 Dec - 19:14:10 10° S 19:17:20 13° SSE 19:20:24 10° SE visible
03 Dec - 21:00:50 10° SW 21:05:06 16° S 21:09:01 10° SSE visible
03 Dec - 22:50:31 10° SW 22:52:38 12° SSW 22:54:39 10° S night (unlit)
04 Dec - 19:02:16 10° SSW 19:06:08 14° SSE 19:09:52 10° SE visible
04 Dec - 20:49:23 10° SW 20:53:57 17° S 20:58:10 10° SE visible
04 Dec - 22:39:20 10° SW 22:41:30 12° SSW 22:43:34 10° S night (unlit)
05 Dec - 18:50:33 10° SSW 18:54:56 16° SSE 18:59:10 10° SE visible
05 Dec - 20:37:59 10° SW 20:42:46 17° S 20:47:14 10° SSE visible
05 Dec - 22:28:15 10° SW 22:30:21 11° SSW 22:32:21 10° S night (unlit)
